OBJECT W, 69000

Orbit data source: Space-Track

You're viewing an Uncataloged Satellite

Recently launched and/or uncataloged satellites may have evolving metadata. Metadata may include but not limited to: Owner, Maufacturer, Bus, Motor, and Mission.

OBJECT W, 69000 is a satellite in SSO that was launched on Sun, 03 May 2026 UTC via an FALCON 9 launch vehicle from the Air Force Western Test Range (AFWTR). Unknown objects in Earth's orbit typically refer to objects detected orbiting the Earth but have not yet been identified or cataloged. These objects could be anything from previously untracked satellites, spent rocket stages, debris from satellite collisions, or even natural meteoroids temporarily captured by Earth's gravity.

Loading next visibility...
Identifier
69000, 2026-100W
Orbit
SSO
Country
Flag of TBDTBD
Related business
Manufacturer
NCKU
Mission
Operational spacecraft
Bus & Motor
CUBESAT 3U, Unknown motor
Mass
4 kg wet, 4 kg dry
Launch date (UTC)
2026-05-03 (2 months ago)
Launch vehicle
FALCON 9
Launch site
Air Force Western Test Range (AFWTR)
Object type
Unknown
Shape & HBR
Unknown shape, 1.1 m
Radar Cross Section
Medium (>0.1 m² and <1 m²)

Expand to show TLE details & history
Last TLE update: 13 hours ago

TLE from 13 hours ago
0 OBJECT W
1 69000U 26100W   26175.30290053  .00001362  00000-0  13897-3 0  9990
2 69000  97.7320  72.6432 0001147 115.7572 244.3766 14.92249935  7760
Epoch: 2026-06-24T07:16Z
TLE epoch observation values (Epoch: 2026-06-24T07:16:10.605Z)
Latitude
-0°
Longitude
51.13696°
Altitude
594.311 km
Speed
7.563 km/s
True Right ascension
04h 50m 34s
True Declination
0° 00' 00"
Sunlit
Object was in daylight at epoch
Visualization orbit readout
Latitude
Unknown
Longitude
Unknown
Altitude
Unknown
Speed
Unknown
Apparent Right ascension
Unknown
Apparent Declination
Unknown
Sunlit
N/A
Visualization observer readout
Local Sidereal Time
07:37:35
Azimuth
Unknown
Elevation
Unknown
Doppler factor
Unknown
Orbital elements
Apogee altitude
588.738 km
Perigee altitude
587.14 km
Semi-major axis
6,966.076 km
Eccentricity
0.00011
Inclination
97.732°
RAAN
72.6432°
Arg. of periapsis
115.7572°
True anomaly
244.36475°
Mean anomaly
244.3766°
Eccentric anomaly
244.37067°
Mean motion
3.73302 °/min
Orbital period
96.44 mins
BSTAR
0.00013897
Loading maneuver chart data...
Computing Atmospheric mass density...
Loading historical data...
Loading historical data...
Loading historical data...
Loading historical data...
Loading historical data...
Loading historical data...
Loading historical data...

Documentation

Showing up to 5 results
|